User: anonymous   Login
Location: Unspecified
(0.0000°N, 0.0000°E)
Time: 09:36:11
(UTC+00:00)
Language:

Sunsat (SO-35) - Orbit

View from above orbital plane
View from above orbital plane
View from above satellite
View from above satellite

Ground track
Ground track

The orbit data is extracted from the following two-line orbital elements,

1 25636U 99008C   19050.21434399  .00000014  00000-0  11287-4 0  9996
2 25636  96.4799 163.7507 0145617 180.5223 179.5845 14.44678389 53137
Epoch (UTC): 19 February 2019 05:08:39
Eccentricity: 0.0145617
inclination: 96.4799°
perigee height: 639 km
apogee height: 847 km
right ascension of ascending node: 163.7507°
argument of perigee: 180.5223°
revolutions per day: 14.44678389
mean anomaly at epoch: 179.5845°
orbit number at epoch: 5313

The dashed part of the orbit path shows where the satellite is in the earth's shadow,  

DLR